User: anonymous   Login
Location: Cerroniocc
(13.7547°S, 72.0222°W)
Time: 02:20:47
(UTC+00:00)
Language:

CREW DRAGON DEMO-1 DEB - Orbit

View from above orbital plane
View from above orbital plane
View from above satellite
View from above satellite

Ground track
Ground track

The orbit data is extracted from the following two-line orbital elements,

1 44064U 19011B   20272.71291780  .00030525  00000-0  27913-3 0  9998
2 44064  51.6333 148.3558 0003675 100.9767 259.1643 15.67538524 89098
Epoch (UTC): 28 September 2020 17:06:36
Eccentricity: 0.0003675
inclination: 51.6333°
perigee height: 363 km
apogee height: 368 km
right ascension of ascending node: 148.3558°
argument of perigee: 100.9767°
revolutions per day: 15.67538524
mean anomaly at epoch: 259.1643°
orbit number at epoch: 8909

The dashed part of the orbit path shows where the satellite is in the earth's shadow,  

DLR